Wind_Speed
23 25 27 27 28 30 36 41 38 37 34 31 31 27 29 28 23 20 21 25 26 27 29 28 28 27 22 18 17 17 16 16 15 15 16 16 14 11 11 14 16 17 20 21 21 19 17 16 15 15 16 18
24 25 27 27 25 24 28 35 35 34 31 29 28 28 30 25 18 21 24 27 27 28 29 28 29 29 27 24 21 19 17 17 16 16 17 16 13 12 15 18 17 18 20 21 21 20 18 18 17 18 19 19
25 21 15 8 6 20 29 32 33 31 28 25 24 27 26 21 23 28 28 28 27 27 28 28 28 28 29 27 24 21 19 18 18 18 17 17 15 15 18 18 17 18 20 21 22 21 20 20 20 20 20 19
23 15 6 10 18 24 29 31 30 28 23 20 22 24 23 25 30 31 30 28 25 25 28 28 27 27 29 29 26 23 23 21 20 20 18 17 16 18 19 19 19 19 19 21 22 22 22 21 20 20 20 20
18 9 10 11 17 20 25 27 23 21 19 20 24 27 27 30 31 31 30 27 24 25 29 29 27 27 29 28 27 24 24 24 22 21 19 17 17 20 21 20 20 20 20 21 22 22 22 21 20 19 20 20
17 10 15 14 18 22 23 25 21 19 20 21 26 30 31 31 31 31 29 26 26 27 29 29 26 26 27 26 26 26 24 22 22 20 19 19 19 21 23 20 20 20 20 21 21 22 22 21 20 19 19 19
19 12 16 19 21 24 23 24 21 20 22 23 27 31 31 31 31 31 29 28 28 29 29 28 25 25 26 24 24 25 24 22 22 19 20 22 21 23 25 21 20 20 20 21 21 21 21 22 21 19 18 18
21 16 14 20 21 23 24 25 23 22 24 26 30 33 32 33 32 30 30 30 29 29 28 26 24 24 24 24 22 23 25 23 21 20 21 24 23 25 26 22 21 20 20 20 21 21 21 21 21 20 18 18
21 19 16 18 20 20 21 26 26 25 27 29 32 33 34 33 32 31 30 30 29 28 27 24 24 23 24 24 22 23 25 24 23 23 23 24 25 28 27 25 23 21 21 20 19 20 21 21 21 20 19 19
20 20 19 16 19 19 20 26 29 30 31 32 34 34 34 33 33 32 30 29 29 28 27 26 25 24 24 25 25 24 24 25 26 26 25 24 26 28 27 26 25 23 22 20 19 19 19 21 21 21 20 20
17 20 21 19 17 20 25 26 26 34 37 35 35 36 34 32 34 35 32 31 30 30 30 28 28 27 26 27 28 26 25 25 25 26 24 23 26 26 25 25 24 24 23 22 21 20 19 20 21 21 21 20
17 18 21 22 19 18 24 25 22 28 37 37 36 37 36 34 35 36 36 36 34 34 33 32 30 28 27 28 29 28 27 26 25 23 21 23 25 23 23 23 23 23 23 23 23 22 21 21 21 21 21 20
19 19 18 21 22 19 19 23 24 22 31 38 37 37 37 36 36 37 37 38 37 37 37 35 31 29 28 29 30 29 28 27 25 21 19 23 25 23 23 22 22 21 21 22 23 23 23 23 23 23 22 21
23 21 18 17 19 21 19 19 22 24 28 34 38 39 38 38 39 38 37 37 37 38 37 36 33 31 30 30 31 30 29 28 26 21 19 23 25 23 24 23 23 23 22 22 22 23 23 23 23 23 23 22
28 25 22 17 14 18 19 17 19 25 28 28 33 38 39 40 40 39 38 37 37 37 36 37 36 33 32 32 32 31 31 29 27 23 20 22 26 24 24 23 23 23 23 23 23 23 23 24 24 24 24 24
33 30 27 21 13 12 15 15 17 22 26 26 28 32 36 38 36 36 37 37 36 36 36 38 38 36 35 34 33 32 31 29 28 25 21 21 24 25 24 23 22 22 22 22 23 23 23 24 24 25 25 25
34 34 31 27 20 11 9 13 16 20 26 29 27 26 30 33 32 34 36 37 37 36 37 39 38 36 35 34 34 33 31 30 29 26 23 21 23 24 24 24 23 23 22 22 23 23 23 24 24 25 25 26
33 34 34 32 27 19 12 8 9 14 21 26 26 23 26 28 30 33 36 36 36 35 36 37 38 36 35 33 32 32 31 31 30 28 26 23 22 24 24 24 24 24 24 23 23 24 24 24 24 24 24 25
33 32 34 36 33 28 23 18 12 7 7 12 15 18 22 25 26 30 33 34 34 33 34 35 37 36 35 33 32 32 31 31 30 29 28 25 23 24 24 24 24 24 24 23 23 23 23 23 23 23 23 24
36 33 33 35 36 34 30 27 24 20 13 7 4 6 11 15 20 25 27 28 30 32 31 32 34 34 34 33 33 33 32 31 31 31 29 27 25 25 25 24 24 23 23 22 22 22 23 23 23 24 23 23
39 37 34 33 33 34 35 34 33 30 25 19 15 11 7 7 10 17 21 23 26 29 30 31 30 29 29 30 31 32 32 31 31 31 30 28 26 26 26 25 24 23 23 22 21 21 22 22 23 24 24 23
40 38 36 34 33 33 34 35 35 35 32 30 27 22 17 12 7 6 13 18 23 26 28 29 28 27 27 28 29 30 31 31 29 29 28 28 27 25 25 25 24 23 23 22 21 21 21 22 23 23 24 24
42 40 37 36 36 36 36 35 35 36 35 34 34 31 26 20 16 12 7 8 15 21 25 27 28 29 30 29 28 28 29 29 29 27 26 25 25 24 23 23 23 23 22 21 20 20 20 20 22 23 24 24
43 42 39 38 38 37 37 36 34 35 35 34 35 34 32 27 24 22 17 11 6 10 17 22 26 27 29 30 29 30 31 32 32 30 28 26 24 23 21 20 20 20 19 19 18 18 19 19 20 22 23 24
40 39 36 35 35 32 31 34 35 35 36 35 34 34 34 32 29 27 25 21 15 10 7 13 19 24 26 29 31 33 35 36 36 35 33 30 27 26 24 21 19 19 17 14 13 12 15 18 19 20 21 22
36 35 31 28 28 27 24 28 31 32 34 34 33 34 34 33 30 29 29 27 22 18 15 10 9 16 22 25 28 31 33 33 34 35 34 32 29 27 25 23 21 21 17 11 9 6 6 11 15 18 20 22
33 32 29 25 24 25 24 26 30 31 32 32 33 34 35 34 32 30 29 29 26 23 21 18 14 9 13 20 24 27 28 29 30 32 33 34 33 27 24 23 22 22 21 15 9 3 2 4 5 11 17 22
31 30 30 26 23 23 22 24 29 33 35 36 35 35 35 34 34 32 30 29 28 26 23 21 20 16 11 10 17 23 25 27 29 31 32 33 34 31 26 24 23 24 24 23 15 5 0 1 1 4 7 14
33 33 33 31 28 26 25 26 30 34 37 37 36 35 35 34 33 32 31 30 29 28 26 23 21 19 16 13 10 14 21 24 26 28 30 31 32 33 31 28 26 25 27 29 25 16 6 1 2 4 2 4
33 34 34 35 32 31 30 29 31 31 30 31 32 32 33 32 32 32 31 31 31 30 29 26 24 22 19 17 14 11 13 19 23 25 27 28 29 32 31 26 24 26 30 31 30 28 21 12 6 2 1 2
32 32 32 32 30 28 27 26 26 25 24 24 25 26 29 30 31 31 31 31 31 31 30 28 27 25 23 20 17 14 11 12 17 22 25 26 28 31 30 25 22 25 27 27 30 33 31 25 16 6 3 4
Wind_Direction
304 298 292 285 276 252 209 180 163 155 153 157 158 156 160 164 168 177 174 172 174 171 169 170 176 174 165 161 163 164 161 158 157 158 161 161 156 147 142 139 134 142 149 149 149 149 150 151 150 153 153 151
310 308 298 293 279 237 186 156 148 149 151 156 161 163 171 176 176 178 172 170 172 171 171 170 175 176 169 166 164 167 166 163 165 163 163 163 162 163 156 144 137 142 147 147 147 146 146 147 148 151 152 149
316 311 292 277 193 167 153 146 148 151 158 163 169 175 183 179 168 171 171 171 174 175 176 174 177 178 175 174 170 171 171 168 170 169 166 169 175 178 164 146 141 145 148 148 147 147 147 149 150 152 152 151
313 302 246 152 143 153 154 153 153 157 169 176 177 183 183 171 169 174 175 178 181 182 181 182 186 182 180 183 179 178 181 179 175 174 172 173 182 186 170 152 147 148 151 151 150 150 151 153 154 155 155 154
310 262 202 171 165 171 168 164 165 170 178 178 176 180 179 174 176 178 182 187 184 183 185 188 192 187 185 187 183 182 187 184 177 177 175 173 187 189 174 158 152 152 156 155 154 155 155 156 157 157 158 158
313 243 205 206 194 186 183 181 180 179 182 183 176 179 183 183 183 182 186 188 181 184 188 190 189 182 182 183 181 182 183 180 177 182 179 177 192 190 174 164 157 156 160 161 161 161 161 161 161 160 161 163
312 278 221 216 201 190 195 195 194 191 191 190 183 184 187 185 185 185 186 183 182 186 187 186 181 176 179 179 181 182 179 178 176 180 183 187 196 186 173 167 163 163 165 166 167 168 167 167 168 167 166 167
306 300 255 229 204 195 204 206 210 204 195 190 185 186 187 185 184 185 185 183 184 187 187 186 180 178 182 181 184 185 181 180 178 179 188 195 195 181 173 170 169 170 170 169 170 172 174 173 173 174 174 172
302 303 290 254 218 210 212 210 211 203 194 189 187 188 188 186 185 186 186 185 187 189 189 187 185 183 183 186 189 187 183 180 180 185 193 198 191 179 174 175 176 176 175 173 172 174 177 178 177 178 178 177
303 296 300 281 244 239 226 213 212 204 196 191 190 190 190 189 188 188 189 189 190 191 190 189 189 187 187 191 193 192 187 183 185 191 195 196 188 180 177 179 181 183 183 180 178 178 178 179 180 181 180 180
310 294 293 290 275 263 241 226 217 205 198 194 193 192 192 192 190 190 190 192 192 190 191 192 191 191 194 194 195 195 192 190 193 197 200 198 191 185 181 181 183 185 188 188 185 183 182 181 180 182 183 184
324 307 297 286 281 275 256 250 242 211 196 194 196 196 196 195 194 192 191 192 191 189 190 193 193 194 198 197 196 198 197 199 201 204 204 197 192 189 187 186 185 186 187 189 189 188 186 184 182 182 183 185
343 329 316 292 277 277 271 264 255 222 196 196 198 197 198 198 198 196 194 193 191 189 189 192 195 197 199 199 199 200 201 205 208 209 205 195 193 193 192 191 191 190 189 189 189 190 189 187 185 185 185 185
5 353 342 315 286 278 281 272 250 219 199 200 200 199 200 200 200 200 198 195 194 193 191 193 197 200 201 201 202 204 205 208 211 211 207 199 198 198 197 197 196 195 194 194 193 194 194 191 189 188 188 187
17 12 2 344 307 282 279 279 255 223 209 206 203 201 201 202 203 202 200 199 199 197 195 196 199 202 203 204 205 207 208 209 211 212 212 207 205 204 203 204 202 200 199 198 197 198 199 197 194 192 192 191
20 21 16 5 345 299 277 279 271 243 229 219 210 205 203 203 202 202 203 202 202 201 201 201 201 203 205 207 207 208 210 211 212 214 214 214 212 211 211 210 210 209 206 203 202 201 202 201 200 198 196 196
21 22 24 20 13 354 300 279 275 260 243 228 220 215 210 206 202 203 207 206 206 205 205 204 203 205 207 209 210 210 212 213 215 214 213 215 216 215 215 214 214 214 211 209 207 204 204 204 204 204 201 200
22 20 24 26 26 23 14 343 293 269 249 233 227 226 218 211 206 208 211 210 209 208 207 207 206 208 210 211 212 212 214 215 216 215 214 215 217 219 218 218 217 217 215 212 210 208 207 206 206 206 205 204
25 21 22 27 31 32 30 30 24 356 288 251 241 236 225 219 214 213 215 214 214 214 212 210 209 211 212 213 212 214 215 215 216 216 215 217 219 219 218 219 219 219 219 216 214 212 211 211 211 210 210 208
28 26 24 25 31 36 37 36 36 36 31 16 326 277 251 244 235 225 221 219 219 218 216 213 213 214 214 214 214 214 215 215 217 217 216 218 221 220 217 218 219 220 221 220 218 217 215 215 215 215 214 213
28 29 27 24 26 33 38 38 36 35 37 37 31 18 359 311 270 246 239 233 225 221 220 219 217 216 217 216 215 216 217 217 218 218 218 217 220 222 220 218 218 220 221 222 222 220 219 218 217 217 216 216
26 27 28 26 25 28 33 36 34 32 34 36 34 31 29 23 4 295 263 251 238 231 228 224 222 222 222 222 220 219 219 219 219 219 220 219 218 219 220 220 219 220 221 222 223 223 223 221 219 219 218 218
25 26 28 27 26 26 28 31 31 30 30 31 32 31 31 31 30 22 347 284 254 246 241 234 229 226 225 224 223 222 221 220 220 220 220 219 217 216 218 223 223 221 220 219 221 224 223 223 222 221 220 220
25 25 25 25 24 22 23 25 26 26 27 28 28 27 29 31 31 27 22 12 326 269 255 244 237 232 229 227 225 224 224 223 224 224 223 221 219 218 218 222 223 221 219 216 217 222 223 223 223 223 223 222
24 23 22 22 21 17 17 20 21 22 24 25 26 25 25 27 28 27 24 21 18 6 315 264 248 241 235 232 229 228 227 226 226 225 225 223 220 219 218 218 220 220 219 217 218 224 230 232 230 229 228 227
24 24 24 24 21 18 17 19 19 18 18 21 23 25 24 24 24 24 23 21 20 20 14 354 290 253 241 236 233 231 228 225 223 221 220 217 214 214 215 217 219 218 215 210 212 225 247 248 243 240 236 233
24 24 26 29 26 24 22 19 20 19 18 20 22 24 24 23 23 23 21 19 20 21 19 17 9 326 264 246 238 234 231 227 224 220 217 216 213 209 208 213 219 218 213 205 200 211 275 266 258 250 243 239
21 22 24 28 29 29 29 22 21 21 20 21 21 20 20 20 21 22 20 17 18 20 20 19 16 10 348 291 255 241 234 230 227 222 219 218 216 210 204 206 213 216 214 208 200 185 212 329 294 262 246 236
17 18 19 21 22 23 24 21 19 19 17 18 18 16 15 15 17 19 19 18 18 18 19 19 16 12 9 358 317 266 246 236 230 226 223 220 216 214 211 207 207 210 213 212 208 201 191 157 236 260 266 232
12 15 17 19 19 18 17 17 17 16 14 13 14 12 11 13 15 17 18 18 18 18 18 18 17 16 13 10 2 330 279 253 241 234 230 225 221 219 218 213 205 205 208 209 211 212 214 219 221 248 196 178
10 13 16 18 20 19 18 15 13 13 13 13 13 13 12 11 13 16 17 17 16 16 17 16 16 16 16 14 11 3 341 298 266 251 243 236 231 226 222 219 213 209 204 204 212 215 218 224 231 248 224 203
Height
784 782 780 779 779 778 775 772 775 778 781 786 789 790 792 793 794 795 796 798 799 800 800 802 803 804 807 810 812 813 814 814 815 816 817 817 818 818 818 817 817 817 817 817 817 818 819 820 822 824 825 826
784 782 779 777 774 774 775 774 777 782 785 788 791 792 792 792 793 794 796 797 799 800 800 802 803 803 804 807 810 811 812 814 815 816 816 817 817 818 818 817 817 817 817 817 818 819 820 821 823 825 826 827
785 783 780 777 774 775 777 777 778 783 787 790 791 792 793 793 793 795 796 797 798 799 801 802 803 803 802 805 808 810 812 813 815 816 816 816 816 818 818 817 817 817 818 818 818 819 821 823 824 825 827 827
786 785 783 781 779 780 780 780 780 782 785 788 791 792 793 794 794 795 795 796 798 799 800 801 802 802 802 804 807 808 811 812 814 815 815 816 816 817 817 817 817 817 818 818 819 820 821 824 825 826 827 828
788 787 786 784 783 783 782 783 784 784 785 788 790 792 793 794 794 794 795 796 797 798 799 800 801 802 803 804 806 808 810 811 813 813 814 814 815 816 817 817 816 816 818 818 819 820 822 824 826 828 828 828
789 789 788 786 784 784 784 785 786 786 787 789 790 792 794 795 795 795 795 796 797 798 799 801 802 803 804 805 807 809 809 810 812 812 813 813 813 815 816 816 817 817 817 818 820 821 822 824 827 829 829 829
790 790 789 787 785 784 785 785 786 787 787 789 791 792 793 794 795 796 796 797 798 799 800 802 804 804 805 807 808 809 810 810 811 813 813 812 813 815 815 816 816 817 818 818 819 821 822 824 826 828 830 830
791 791 790 789 787 787 786 786 786 787 787 788 790 792 793 794 795 796 797 797 799 800 802 804 805 805 806 807 808 809 809 810 811 813 813 812 813 814 814 815 816 818 819 819 819 820 822 823 826 828 829 830
791 790 790 789 789 788 788 787 787 787 788 788 790 791 792 793 794 796 797 798 799 801 803 805 806 806 807 807 807 808 809 810 811 812 812 812 812 813 813 815 816 817 819 819 819 820 822 823 825 827 828 830
791 790 790 790 790 789 788 788 787 786 787 787 788 790 791 792 793 794 797 798 800 801 803 805 806 806 806 807 807 807 808 809 810 810 811 812 812 812 813 814 815 816 818 819 820 821 822 823 824 826 828 829
791 790 790 790 790 789 787 787 786 784 783 785 787 788 790 791 791 792 794 797 799 800 802 804 805 805 806 806 806 807 808 808 809 810 811 812 813 813 813 814 815 816 817 818 819 820 822 823 824 826 827 828
791 790 790 790 789 788 787 786 786 784 782 784 786 787 789 790 791 791 791 793 795 797 800 803 804 804 805 806 806 806 807 808 809 810 811 812 813 814 814 815 816 816 817 818 819 820 821 823 824 826 827 828
791 790 789 789 788 788 787 786 786 786 784 783 784 787 789 790 791 791 791 791 793 794 796 800 802 803 804 804 805 805 806 807 808 809 810 812 813 813 814 815 816 817 818 819 819 820 820 822 823 825 826 827
792 791 789 789 789 788 788 787 786 786 785 784 784 785 787 788 789 790 792 793 793 794 794 797 800 801 802 803 803 804 805 806 807 808 810 811 812 813 814 814 816 817 818 820 820 821 821 822 823 824 825 826
794 792 790 789 789 788 788 788 787 786 785 785 784 784 785 787 788 789 791 793 795 795 794 796 798 799 801 802 802 803 804 805 806 808 809 811 812 813 814 815 815 817 818 819 820 821 821 822 823 824 825 826
795 793 792 790 788 788 788 788 788 788 787 786 786 786 786 787 788 789 790 792 794 796 795 795 796 797 799 800 801 802 803 805 806 808 809 811 812 813 814 815 816 817 818 819 820 821 822 822 823 824 824 825
798 796 793 792 790 788 788 788 788 788 788 787 787 787 788 787 789 791 792 792 793 794 795 794 795 796 798 799 801 802 803 805 806 808 809 810 812 813 814 815 816 817 818 819 820 820 821 822 823 823 824 824
801 799 796 794 792 789 788 788 788 789 789 788 788 789 789 789 790 791 792 792 793 793 794 794 794 795 797 799 800 802 803 804 806 807 808 810 811 812 814 815 815 816 817 818 819 820 821 821 822 823 823 824
803 801 799 796 793 791 790 789 789 789 789 789 789 790 791 790 790 791 791 792 793 794 794 793 794 795 796 797 799 802 803 804 805 806 808 809 810 812 813 814 815 816 817 818 818 819 820 821 822 822 823 823
805 803 801 799 797 795 793 792 791 790 790 790 790 791 791 791 791 792 791 792 793 794 794 794 794 794 795 796 798 800 802 804 805 806 807 807 809 810 812 813 814 815 816 817 818 819 819 820 821 822 822 823
808 806 804 803 801 799 797 795 794 793 791 790 791 791 791 791 792 793 793 793 793 794 794 794 794 795 795 796 797 799 801 803 804 805 806 807 808 809 811 812 813 814 815 816 817 818 819 819 820 821 821 822
811 809 807 805 804 802 800 798 797 796 795 793 793 793 792 791 791 792 793 793 794 793 793 793 794 795 795 796 797 798 800 802 804 805 806 807 808 809 810 812 812 813 814 815 816 817 818 819 819 820 821 822
813 811 808 807 806 804 802 799 799 800 799 797 795 795 795 793 792 792 792 793 793 793 793 793 793 793 793 794 796 798 799 800 802 804 806 808 808 810 810 812 812 813 813 814 815 816 817 818 819 819 820 820
814 811 809 808 807 806 805 803 803 804 803 800 798 798 798 795 793 793 793 792 792 792 793 793 793 792 792 792 794 795 796 798 800 802 805 807 809 810 811 812 813 813 814 814 815 816 817 817 818 818 818 819
818 815 814 812 811 812 811 810 808 807 805 803 802 801 800 797 795 794 794 793 792 791 792 792 792 792 792 792 792 792 793 794 796 798 802 805 807 808 810 811 812 813 814 815 815 816 816 816 817 817 817 817
824 822 821 819 818 817 816 814 812 810 808 806 805 803 801 799 797 796 796 795 793 792 791 791 791 792 792 792 792 791 792 792 794 795 798 801 803 805 807 809 811 812 813 815 815 816 817 816 816 816 816 815
828 827 825 823 822 819 817 816 814 813 811 808 805 804 802 801 799 798 798 798 795 793 792 791 790 791 791 791 791 792 792 792 793 794 796 797 799 802 804 807 808 809 811 813 815 817 818 816 816 814 813 813
831 830 827 825 823 821 819 817 815 812 810 807 805 804 804 803 802 800 799 799 797 795 793 792 791 791 790 791 791 792 792 792 792 793 794 795 796 798 801 803 804 806 808 810 813 816 818 819 818 812 809 810
832 830 827 825 822 820 818 816 814 811 809 808 806 806 805 805 804 802 801 801 799 797 795 794 793 793 791 791 791 791 792 792 792 792 793 794 795 795 796 798 800 802 805 807 809 812 813 816 817 811 808 809
833 830 827 824 821 819 817 816 815 814 814 813 812 810 809 807 806 804 803 802 800 798 797 796 795 794 793 792 791 791 792 792 792 792 792 793 794 794 795 797 798 798 800 804 807 808 808 810 811 810 810 810
833 831 829 827 825 824 822 821 821 821 820 819 818 816 813 811 808 806 805 803 802 800 799 798 797 796 795 793 793 791 791 792 792 792 792 793 793 794 795 797 798 797 799 802 804 805 806 807 808 809 810 810